{"data":{"norad_id":40296,"epoch":"2026-09-19T09:37:25.950720Z","epoch_age_seconds":136149,"freshness":"FRESH","line1":"1 40296U 14069A   26262.40099480  .00000223  00000+0  00000+0 0  9998","line2":"2 40296  63.4472 206.1668 6615480 269.9190  20.2140  2.00605686 87124","mean_motion":2.00605686,"eccentricity":0.661548,"inclination_deg":63.4472,"raan_deg":206.1668,"arg_perigee_deg":269.919,"mean_anomaly_deg":20.214,"bstar":0,"rev_number":8712,"period_min":717.826113862,"perigee_km":2610.0086293257,"apogee_km":37746.983826927,"semimajor_km":26556.633228126,"source":"CELESTRAK","updated_at":"2026-09-20T09:00:14.054231Z"}}